iso_date,Year,Hour,Min,DOY,POS_DOY,Lat,Lon,BP,Ts,Ta,has_bp,has_ts,has_ta,BuoyID,Buoy_Type,Buoy_Owner,Logistics,Hemisphere
2022-10-11T19:20:55Z,2022,19,20,284.8062,284.8062,57.45731,-152.31963,1019.1,8.75,-999.0,yes,yes,no,300534062023530,Ice_Ball,USIABP,SIZRS,North
2022-10-11T20:21:50Z,2022,20,21,284.8485,284.8485,57.46572,-152.35545,1019.5,8.5,-999.0,yes,yes,no,300534062023530,Ice_Ball,USIABP,SIZRS,North
2022-10-12T00:22:01Z,2022,0,22,285.0153,285.0153,57.44889,-152.28385,1019.9,12.5,-999.0,yes,yes,no,300534062023530,Ice_Ball,USIABP,SIZRS,North
2022-10-12T00:22:19Z,2022,0,22,285.0155,285.0155,57.47878,-153.38735,1019.9,12.1,-999.0,yes,yes,no,300534062023530,Ice_Ball,USIABP,SIZRS,North
2022-10-12T00:22:27Z,2022,0,22,285.0156,285.0156,57.47878,-153.38735,1020.2,10.95,-999.0,yes,yes,no,300534062023530,Ice_Ball,USIABP,SIZRS,North
2022-10-12T00:22:53Z,2022,0,22,285.0159,285.0159,57.47878,-153.38735,1020.2,9.05,-999.0,yes,yes,no,300534062023530,Ice_Ball,USIABP,SIZRS,North
2022-10-12T01:24:40Z,2022,1,24,285.0588,285.0588,57.44889,-152.28385,1019.7,12.7,-999.0,yes,yes,no,300534062023530,Ice_Ball,USIABP,SIZRS,North
2022-10-12T22:26:24Z,2022,22,26,285.935,285.935,75.49509,-149.57884,-999.0,17.75,-999.0,yes,yes,no,300534062023530,Ice_Ball,USIABP,SIZRS,North
2022-10-12T23:27:53Z,2022,23,27,285.9777,285.9777,75.49509,-149.57884,994.6,8.9,-999.0,yes,yes,no,300534062023530,Ice_Ball,USIABP,SIZRS,North
2022-10-13T00:29:31Z,2022,0,29,286.0205,286.0205,75.52358,-150.1101,994.3,3.35,-999.0,yes,yes,no,300534062023530,Ice_Ball,USIABP,SIZRS,North
2022-10-13T01:31:17Z,2022,1,31,286.0634,286.0634,75.52358,-150.1101,994.1,1.15,-999.0,yes,yes,no,300534062023530,Ice_Ball,USIABP,SIZRS,North
2022-10-13T02:32:38Z,2022,2,32,286.106,286.106,75.51314,-149.5348,993.7,-0.5,-999.0,yes,yes,no,300534062023530,Ice_Ball,USIABP,SIZRS,North
2022-10-13T03:34:07Z,2022,3,34,286.1487,286.1487,75.49509,-149.57884,993.1,-0.85,-999.0,yes,yes,no,300534062023530,Ice_Ball,USIABP,SIZRS,North
2022-10-13T04:37:46Z,2022,4,37,286.1929,286.1929,75.41241,-147.23724,993.0,-1.15,-999.0,yes,yes,no,300534062023530,Ice_Ball,USIABP,SIZRS,North
2022-10-13T05:37:14Z,2022,5,37,286.2342,286.2342,75.49509,-149.57884,992.4,-1.55,-999.0,yes,yes,no,300534062023530,Ice_Ball,USIABP,SIZRS,North
2022-10-13T06:38:52Z,2022,6,38,286.277,286.277,75.48463,-149.50293,991.4,-1.7,-999.0,yes,yes,no,300534062023530,Ice_Ball,USIABP,SIZRS,North
2022-10-13T07:41:22Z,2022,7,41,286.3204,286.3204,75.50266,-149.45878,991.1,-1.6,-999.0,yes,yes,no,300534062023530,Ice_Ball,USIABP,SIZRS,North
2022-10-13T08:41:51Z,2022,8,41,286.3624,286.3624,75.50266,-149.45878,991.5,-1.85,-999.0,yes,yes,no,300534062023530,Ice_Ball,USIABP,SIZRS,North
2022-10-13T09:43:29Z,2022,9,43,286.4052,286.4052,75.50266,-149.45878,991.9,-2.85,-999.0,yes,yes,no,300534062023530,Ice_Ball,USIABP,SIZRS,North
2022-10-13T10:45:07Z,2022,10,45,286.448,286.448,75.51012,-149.33851,991.9,-3.6,-999.0,yes,yes,no,300534062023530,Ice_Ball,USIABP,SIZRS,North
2022-10-13T11:47:11Z,2022,11,47,286.4911,286.4911,75.51012,-149.33851,991.7,-3.45,-999.0,yes,yes,no,300534062023530,Ice_Ball,USIABP,SIZRS,North
2022-10-13T12:48:05Z,2022,12,48,286.5334,286.5334,75.51012,-149.33851,991.8,-3.15,-999.0,yes,yes,no,300534062023530,Ice_Ball,USIABP,SIZRS,North
2022-10-13T13:50:18Z,2022,13,50,286.5766,286.5766,75.49954,-149.26277,992.0,-3.25,-999.0,yes,yes,no,300534062023530,Ice_Ball,USIABP,SIZRS,North
2022-10-13T14:51:21Z,2022,14,51,286.619,286.619,75.52115,-148.50091,992.2,-3.5,-999.0,yes,yes,no,300534062023530,Ice_Ball,USIABP,SIZRS,North
2022-10-13T16:54:20Z,2022,16,54,286.7044,286.7044,75.48158,-149.30734,993.4,-4.6,-999.0,yes,yes,no,300534062023530,Ice_Ball,USIABP,SIZRS,North
2022-10-13T16:54:37Z,2022,16,54,286.7046,286.7046,75.48158,-149.30734,992.8,-3.85,-999.0,yes,yes,no,300534062023530,Ice_Ball,USIABP,SIZRS,North
2022-10-13T17:55:58Z,2022,17,55,286.7472,286.7472,75.48158,-149.30734,993.6,-5.3,-999.0,yes,yes,no,300534062023530,Ice_Ball,USIABP,SIZRS,North
2022-10-13T18:57:27Z,2022,18,57,286.7899,286.7899,75.48158,-149.30734,994.0,-5.05,-999.0,yes,yes,no,300534062023530,Ice_Ball,USIABP,SIZRS,North
2022-10-13T19:59:05Z,2022,19,59,286.8327,286.8327,75.16784,-140.23583,994.3,-1.95,-999.0,yes,yes,no,300534062023530,Ice_Ball,USIABP,SIZRS,North
2022-10-13T21:00:34Z,2022,21,0,286.8754,286.8754,75.49954,-149.26277,995.0,-3.05,-999.0,yes,yes,no,300534062023530,Ice_Ball,USIABP,SIZRS,North
2022-10-13T22:02:03Z,2022,22,2,286.9181,286.9181,75.51749,-149.21801,995.5,-4.75,-999.0,yes,yes,no,300534062023530,Ice_Ball,USIABP,SIZRS,North
2022-10-13T23:03:41Z,2022,23,3,286.9609,286.9609,75.48892,-149.18723,995.9,-2.75,-999.0,yes,yes,no,300534062023530,Ice_Ball,USIABP,SIZRS,North
2022-10-14T00:05:19Z,2022,0,5,287.0037,287.0037,75.48892,-149.18723,996.3,-1.85,-999.0,yes,yes,no,300534062023530,Ice_Ball,USIABP,SIZRS,North
2022-10-14T01:07:23Z,2022,1,7,287.0468,287.0468,75.47098,-149.23191,996.8,-1.5,-999.0,yes,yes,no,300534062023530,Ice_Ball,USIABP,SIZRS,North
2022-10-14T02:08:18Z,2022,2,8,287.0891,287.0891,75.45506,-149.15667,997.1,-1.5,-999.0,yes,yes,no,300534062023530,Ice_Ball,USIABP,SIZRS,North
2022-10-14T03:09:56Z,2022,3,9,287.1319,287.1319,75.47826,-149.11189,997.4,-1.5,-999.0,yes,yes,no,300534062023530,Ice_Ball,USIABP,SIZRS,North
2022-10-14T04:11:25Z,2022,4,11,287.1746,287.1746,75.32033,-143.2639,997.7,-1.5,-999.0,yes,yes,no,300534062023530,Ice_Ball,USIABP,SIZRS,North
2022-10-14T05:13:03Z,2022,5,13,287.2174,287.2174,75.46361,-149.35171,998.4,-1.5,-999.0,yes,yes,no,300534062023530,Ice_Ball,USIABP,SIZRS,North
2022-10-14T06:14:32Z,2022,6,14,287.2601,287.2601,75.44438,-149.8163,999.1,-1.5,-999.0,yes,yes,no,300534062023530,Ice_Ball,USIABP,SIZRS,North
2022-10-14T07:16:01Z,2022,7,16,287.3028,287.3028,75.44438,-149.8163,999.6,-1.5,-999.0,yes,yes,no,300534062023530,Ice_Ball,USIABP,SIZRS,North
2022-10-14T08:17:39Z,2022,8,17,287.3456,287.3456,75.46227,-149.3675,1000.2,-1.5,-999.0,yes,yes,no,300534062023530,Ice_Ball,USIABP,SIZRS,North
2022-10-14T09:19:09Z,2022,9,19,287.3883,287.3883,75.44438,-149.8163,1000.9,-1.5,-999.0,yes,yes,no,300534062023530,Ice_Ball,USIABP,SIZRS,North
2022-10-14T10:20:38Z,2022,10,20,287.431,287.431,75.43366,-149.679,1001.6,-1.5,-999.0,yes,yes,no,300534062023530,Ice_Ball,USIABP,SIZRS,North
2022-10-14T11:22:16Z,2022,11,22,287.4738,287.4738,75.45153,-148.5618,1002.4,-1.5,-999.0,yes,yes,no,300534062023530,Ice_Ball,USIABP,SIZRS,North
2022-10-14T12:23:45Z,2022,12,23,287.5165,287.5165,75.45153,-148.5618,1003.2,-1.5,-999.0,yes,yes,no,300534062023530,Ice_Ball,USIABP,SIZRS,North
2022-10-14T13:25:23Z,2022,13,25,287.5593,287.5593,75.44075,-148.48705,1003.9,-1.5,-999.0,yes,yes,no,300534062023530,Ice_Ball,USIABP,SIZRS,North
2022-10-14T14:26:52Z,2022,14,26,287.602,287.602,75.45858,-148.44176,1004.7,-1.5,-999.0,yes,yes,no,300534062023530,Ice_Ball,USIABP,SIZRS,North
2022-10-14T15:28:30Z,2022,15,28,287.6448,287.6448,75.44075,-148.48705,1005.5,-1.5,-999.0,yes,yes,no,300534062023530,Ice_Ball,USIABP,SIZRS,North
2022-10-14T16:30:00Z,2022,16,29,287.6875,287.6875,75.41212,-148.45768,1006.4,-1.5,-999.0,yes,yes,no,300534062023530,Ice_Ball,USIABP,SIZRS,North
2022-10-14T17:31:37Z,2022,17,31,287.7303,287.7303,75.45153,-148.5618,1007.2,-1.5,-999.0,yes,yes,no,300534062023530,Ice_Ball,USIABP,SIZRS,North
2022-10-14T18:33:41Z,2022,18,33,287.7734,287.7734,75.41212,-148.45768,1008.1,-1.5,-999.0,yes,yes,no,300534062023530,Ice_Ball,USIABP,SIZRS,North
2022-10-14T19:34:45Z,2022,19,34,287.8158,287.8158,75.44075,-148.48705,1009.0,-1.5,-999.0,yes,yes,no,300534062023530,Ice_Ball,USIABP,SIZRS,North
2022-10-14T20:36:14Z,2022,20,36,287.8585,287.8585,75.44075,-148.48705,1009.9,-1.5,-999.0,yes,yes,no,300534062023530,Ice_Ball,USIABP,SIZRS,North
2022-10-14T21:37:52Z,2022,21,37,287.9013,287.9013,75.41212,-148.45768,1010.8,-1.5,-999.0,yes,yes,no,300534062023530,Ice_Ball,USIABP,SIZRS,North
2022-10-14T22:39:21Z,2022,22,39,287.944,287.944,75.41212,-148.45768,1011.8,-1.5,-999.0,yes,yes,no,300534062023530,Ice_Ball,USIABP,SIZRS,North
2022-10-14T23:40:59Z,2022,23,40,287.9868,287.9868,75.44075,-148.48705,1012.8,-1.5,-999.0,yes,yes,no,300534062023530,Ice_Ball,USIABP,SIZRS,North
2022-10-15T00:42:28Z,2022,0,42,288.0295,288.0295,75.44075,-148.48705,1013.8,-1.5,-999.0,yes,yes,no,300534062023530,Ice_Ball,USIABP,SIZRS,North
2022-10-15T01:44:06Z,2022,1,44,288.0723,288.0723,75.4013,-148.38343,1014.8,-1.5,-999.0,yes,yes,no,300534062023530,Ice_Ball,USIABP,SIZRS,North
2022-10-15T02:45:36Z,2022,2,45,288.115,288.115,75.41212,-148.45768,1015.5,-1.55,-999.0,yes,yes,no,300534062023530,Ice_Ball,USIABP,SIZRS,North
2022-10-15T03:47:05Z,2022,3,47,288.1577,288.1577,75.42994,-148.41249,1016.1,-1.55,-999.0,yes,yes,no,300534062023530,Ice_Ball,USIABP,SIZRS,North
2022-10-15T04:48:43Z,2022,4,48,288.2005,288.2005,75.58967,-152.58309,1016.8,-1.55,-999.0,yes,yes,no,300534062023530,Ice_Ball,USIABP,SIZRS,North
2022-10-15T05:50:12Z,2022,5,50,288.2432,288.2432,75.41212,-148.45768,1017.2,-1.55,-999.0,yes,yes,no,300534062023530,Ice_Ball,USIABP,SIZRS,North
2022-10-15T06:51:50Z,2022,6,51,288.286,288.286,75.42994,-148.41249,1017.7,-1.55,-999.0,yes,yes,no,300534062023530,Ice_Ball,USIABP,SIZRS,North
2022-10-15T07:53:19Z,2022,7,53,288.3287,288.3287,75.42994,-148.41249,1018.1,-1.55,-999.0,yes,yes,no,300534062023530,Ice_Ball,USIABP,SIZRS,North
2022-10-15T08:54:48Z,2022,8,54,288.3714,288.3714,75.42994,-148.41249,1018.7,-1.55,-999.0,yes,yes,no,300534062023530,Ice_Ball,USIABP,SIZRS,North
2022-10-15T09:56:26Z,2022,9,56,288.4142,288.4142,75.42994,-148.41249,1019.3,-1.55,-999.0,yes,yes,no,300534062023530,Ice_Ball,USIABP,SIZRS,North
2022-10-15T10:58:04Z,2022,10,58,288.457,288.457,75.42994,-148.41249,1019.6,-1.55,-999.0,yes,yes,no,300534062023530,Ice_Ball,USIABP,SIZRS,North
2022-10-15T11:59:25Z,2022,11,59,288.4996,288.4996,75.42994,-148.41249,1019.8,-1.55,-999.0,yes,yes,no,300534062023530,Ice_Ball,USIABP,SIZRS,North
2022-10-15T13:01:03Z,2022,13,1,288.5424,288.5424,75.4886,-148.27572,1020.0,-1.55,-999.0,yes,yes,no,300534062023530,Ice_Ball,USIABP,SIZRS,North
2022-10-15T14:02:41Z,2022,14,2,288.5852,288.5852,75.43686,-148.29264,1020.2,-1.55,-999.0,yes,yes,no,300534062023530,Ice_Ball,USIABP,SIZRS,North
2022-10-15T15:04:10Z,2022,15,4,288.6279,288.6279,75.41909,-148.33813,1020.1,-1.55,-999.0,yes,yes,no,300534062023530,Ice_Ball,USIABP,SIZRS,North
2022-10-15T16:05:48Z,2022,16,5,288.6707,288.6707,75.41909,-148.33813,1020.3,-1.55,-999.0,yes,yes,no,300534062023530,Ice_Ball,USIABP,SIZRS,North
2022-10-15T17:07:17Z,2022,17,7,288.7134,288.7134,75.46387,-148.44176,1020.6,-1.55,-999.0,yes,yes,no,300534062023530,Ice_Ball,USIABP,SIZRS,North
2022-10-15T18:09:30Z,2022,18,9,288.7566,288.7566,75.43686,-148.29264,1020.7,-1.55,-999.0,yes,yes,no,300534062023530,Ice_Ball,USIABP,SIZRS,North
2022-10-15T19:10:24Z,2022,19,10,288.7989,288.7989,75.43686,-148.29264,1020.7,-1.55,-999.0,yes,yes,no,300534062023530,Ice_Ball,USIABP,SIZRS,North
2022-10-15T20:12:02Z,2022,20,12,288.8417,288.8417,75.53415,-151.39564,1020.7,-1.6,-999.0,yes,yes,no,300534062023530,Ice_Ball,USIABP,SIZRS,North
2022-10-15T21:13:32Z,2022,21,13,288.8844,288.8844,75.41909,-148.33813,1020.5,-1.6,-999.0,yes,yes,no,300534062023530,Ice_Ball,USIABP,SIZRS,North
2022-10-15T22:15:36Z,2022,22,15,288.9275,288.9275,75.41909,-148.33813,1020.5,-1.6,-999.0,yes,yes,no,300534062023530,Ice_Ball,USIABP,SIZRS,North
2022-10-15T23:16:39Z,2022,23,16,288.9699,288.9699,75.43686,-148.29264,1020.2,-1.6,-999.0,yes,yes,no,300534062023530,Ice_Ball,USIABP,SIZRS,North
2022-10-16T00:18:08Z,2022,0,18,289.0126,289.0126,75.53072,-151.149,1019.9,-1.6,-999.0,yes,yes,no,300534062023530,Ice_Ball,USIABP,SIZRS,North
2022-10-16T01:19:37Z,2022,1,19,289.0553,289.0553,75.43686,-148.29264,1019.3,-1.6,-999.0,yes,yes,no,300534062023530,Ice_Ball,USIABP,SIZRS,North
2022-10-16T02:21:15Z,2022,2,21,289.0981,289.0981,75.44774,-148.3671,1018.8,-1.6,-999.0,yes,yes,no,300534062023530,Ice_Ball,USIABP,SIZRS,North
2022-10-16T03:22:45Z,2022,3,22,289.1408,289.1408,75.44774,-148.3671,1018.4,-1.6,-999.0,yes,yes,no,300534062023530,Ice_Ball,USIABP,SIZRS,North
2022-10-16T04:24:23Z,2022,4,24,289.1836,289.1836,75.42595,-148.21837,1018.3,-1.6,-999.0,yes,yes,no,300534062023530,Ice_Ball,USIABP,SIZRS,North
2022-10-16T05:26:00Z,2022,5,25,289.2264,289.2264,75.44774,-148.3671,1018.1,-1.6,-999.0,yes,yes,no,300534062023530,Ice_Ball,USIABP,SIZRS,North
2022-10-16T06:27:30Z,2022,6,27,289.2691,289.2691,75.44774,-148.3671,1018.0,-1.6,-999.0,yes,yes,no,300534062023530,Ice_Ball,USIABP,SIZRS,North
2022-10-16T07:29:08Z,2022,7,29,289.3119,289.3119,75.45463,-148.24695,1018.0,-1.55,-999.0,yes,yes,no,300534062023530,Ice_Ball,USIABP,SIZRS,North
2022-10-16T08:30:28Z,2022,8,30,289.3545,289.3545,75.44774,-148.3671,1018.0,-1.55,-999.0,yes,yes,no,300534062023530,Ice_Ball,USIABP,SIZRS,North
2022-10-16T09:32:06Z,2022,9,32,289.3973,289.3973,75.47082,-148.32151,1018.1,-1.55,-999.0,yes,yes,no,300534062023530,Ice_Ball,USIABP,SIZRS,North
2022-10-16T10:33:44Z,2022,10,33,289.4401,289.4401,75.37522,-151.53102,1018.0,-1.55,-999.0,yes,yes,no,300534062023530,Ice_Ball,USIABP,SIZRS,North
2022-10-16T11:35:13Z,2022,11,35,289.4828,289.4828,75.47082,-148.32151,1018.0,-1.55,-999.0,yes,yes,no,300534062023530,Ice_Ball,USIABP,SIZRS,North
2022-10-16T12:36:51Z,2022,12,36,289.5256,289.5256,75.45463,-148.24695,1018.0,-1.55,-999.0,yes,yes,no,300534062023530,Ice_Ball,USIABP,SIZRS,North
2022-10-16T13:38:12Z,2022,13,38,289.5682,289.5682,75.4886,-148.27572,1017.9,-1.55,-999.0,yes,yes,no,300534062023530,Ice_Ball,USIABP,SIZRS,North
2022-10-16T14:39:59Z,2022,14,39,289.6111,289.6111,75.46671,-148.1266,1018.2,-1.55,-999.0,yes,yes,no,300534062023530,Ice_Ball,USIABP,SIZRS,North
2022-10-16T15:41:28Z,2022,15,41,289.6538,289.6538,75.45992,-148.24695,1018.3,-1.55,-999.0,yes,yes,no,300534062023530,Ice_Ball,USIABP,SIZRS,North
2022-10-16T16:43:32Z,2022,16,43,289.6969,289.6969,75.51728,-148.3047,1018.6,-1.55,-999.0,yes,yes,no,300534062023530,Ice_Ball,USIABP,SIZRS,North
2022-10-16T17:44:35Z,2022,17,44,289.7393,289.7393,75.47767,-148.20106,1018.9,-1.55,-999.0,yes,yes,no,300534062023530,Ice_Ball,USIABP,SIZRS,North
2022-10-16T18:46:39Z,2022,18,46,289.7824,289.7824,75.47767,-148.20106,1019.3,-1.55,-999.0,yes,yes,no,300534062023530,Ice_Ball,USIABP,SIZRS,North
2022-10-16T19:47:42Z,2022,19,47,289.8248,289.8248,75.45371,-147.2232,1019.5,-1.55,-999.0,yes,yes,no,300534062023530,Ice_Ball,USIABP,SIZRS,North
2022-10-16T20:49:12Z,2022,20,49,289.8675,289.8675,75.51728,-148.3047,1019.6,-1.55,-999.0,yes,yes,no,300534062023530,Ice_Ball,USIABP,SIZRS,North
2022-10-16T21:51:15Z,2022,21,51,289.9106,289.9106,75.47767,-148.20106,1019.4,-1.55,-999.0,yes,yes,no,300534062023530,Ice_Ball,USIABP,SIZRS,North
2022-10-16T22:52:27Z,2022,22,52,289.9531,289.9531,75.50636,-148.22973,1019.2,-1.55,-999.0,yes,yes,no,300534062023530,Ice_Ball,USIABP,SIZRS,North
2022-10-16T23:54:05Z,2022,23,54,289.9959,289.9959,75.46015,-146.18595,1018.9,-1.55,-999.0,yes,yes,no,300534062023530,Ice_Ball,USIABP,SIZRS,North
2022-10-17T00:55:26Z,2022,0,55,290.0385,290.0385,75.50636,-148.22973,1018.5,-1.55,-999.0,yes,yes,no,300534062023530,Ice_Ball,USIABP,SIZRS,North
2022-10-17T01:57:04Z,2022,1,57,290.0813,290.0813,75.4886,-148.27572,1018.4,-1.55,-999.0,yes,yes,no,300534062023530,Ice_Ball,USIABP,SIZRS,North
2022-10-17T02:58:24Z,2022,2,58,290.1239,290.1239,75.50636,-148.22973,1018.1,-1.6,-999.0,yes,yes,no,300534062023530,Ice_Ball,USIABP,SIZRS,North
2022-10-17T04:00:02Z,2022,4,0,290.1667,290.1667,75.43084,-145.44751,1017.8,-1.6,-999.0,yes,yes,no,300534062023530,Ice_Ball,USIABP,SIZRS,North
2022-10-17T05:01:40Z,2022,5,1,290.2095,290.2095,75.47767,-148.20106,1017.6,-1.6,-999.0,yes,yes,no,300534062023530,Ice_Ball,USIABP,SIZRS,North
2022-10-17T06:03:10Z,2022,6,3,290.2522,290.2522,75.50636,-148.22973,1017.7,-1.6,-999.0,yes,yes,no,300534062023530,Ice_Ball,USIABP,SIZRS,North
2022-10-17T07:04:48Z,2022,7,4,290.295,290.295,75.50636,-148.22973,1017.6,-1.6,-999.0,yes,yes,no,300534062023530,Ice_Ball,USIABP,SIZRS,North
2022-10-17T08:06:17Z,2022,8,6,290.3377,290.3377,75.4886,-148.27572,1017.3,-1.6,-999.0,yes,yes,no,300534062023530,Ice_Ball,USIABP,SIZRS,North
2022-10-17T09:07:55Z,2022,9,7,290.3805,290.3805,75.50636,-148.22973,1017.1,-1.6,-999.0,yes,yes,no,300534062023530,Ice_Ball,USIABP,SIZRS,North
2022-10-17T10:09:24Z,2022,10,9,290.4232,290.4232,75.5557,-147.29694,1016.7,-1.6,-999.0,yes,yes,no,300534062023530,Ice_Ball,USIABP,SIZRS,North
2022-10-17T11:10:53Z,2022,11,10,290.4659,290.4659,75.51728,-148.3047,1016.0,-1.6,-999.0,yes,yes,no,300534062023530,Ice_Ball,USIABP,SIZRS,North
2022-10-17T12:12:31Z,2022,12,12,290.5087,290.5087,75.51728,-148.3047,1015.6,-1.6,-999.0,yes,yes,no,300534062023530,Ice_Ball,USIABP,SIZRS,North
2022-10-17T13:14:00Z,2022,13,14,290.5514,290.5514,75.53506,-148.25861,1015.0,-1.6,-999.0,yes,yes,no,300534062023530,Ice_Ball,USIABP,SIZRS,North
2022-10-17T14:15:38Z,2022,14,15,290.5942,290.5942,75.51034,-148.42565,1014.7,-1.6,-999.0,yes,yes,no,300534062023530,Ice_Ball,USIABP,SIZRS,North
2022-10-17T15:17:08Z,2022,15,17,290.6369,290.6369,75.52412,-148.18355,1014.5,-1.6,-999.0,yes,yes,no,300534062023530,Ice_Ball,USIABP,SIZRS,North
2022-10-17T16:18:46Z,2022,16,18,290.6797,290.6797,75.54423,-148.45523,1014.1,-1.6,-999.0,yes,yes,no,300534062023530,Ice_Ball,USIABP,SIZRS,North
2022-10-17T17:20:15Z,2022,17,20,290.7224,290.7224,75.53506,-148.25861,1013.7,-1.6,-999.0,yes,yes,no,300534062023530,Ice_Ball,USIABP,SIZRS,North
2022-10-17T18:21:53Z,2022,18,21,290.7652,290.7652,75.51728,-148.3047,1013.3,-1.6,-999.0,yes,yes,no,300534062023530,Ice_Ball,USIABP,SIZRS,North
2022-10-17T19:23:22Z,2022,19,23,290.8079,290.8079,75.38334,-142.22712,1012.9,-1.6,-999.0,yes,yes,no,300534062023530,Ice_Ball,USIABP,SIZRS,North
2022-10-17T20:25:00Z,2022,20,24,290.8507,290.8507,75.5498,-148.5308,1012.4,-1.65,-999.0,yes,yes,no,300534062023530,Ice_Ball,USIABP,SIZRS,North
2022-10-17T21:26:29Z,2022,21,26,290.8934,290.8934,75.51034,-148.42565,1012.0,-1.65,-999.0,yes,yes,no,300534062023530,Ice_Ball,USIABP,SIZRS,North
2022-10-17T22:28:07Z,2022,22,28,290.9362,290.9362,75.51034,-148.42565,1011.5,-1.65,-999.0,yes,yes,no,300534062023530,Ice_Ball,USIABP,SIZRS,North
2022-10-17T23:29:36Z,2022,23,29,290.9789,290.9789,75.539,-148.45523,1011.1,-1.65,-999.0,yes,yes,no,300534062023530,Ice_Ball,USIABP,SIZRS,North
2022-10-18T00:31:06Z,2022,0,31,291.0216,291.0216,75.52115,-148.50091,1010.8,-1.65,-999.0,yes,yes,no,300534062023530,Ice_Ball,USIABP,SIZRS,North
2022-10-18T01:32:44Z,2022,1,32,291.0644,291.0644,75.53193,-148.57637,1010.3,-1.65,-999.0,yes,yes,no,300534062023530,Ice_Ball,USIABP,SIZRS,North
2022-10-18T02:34:13Z,2022,2,34,291.1071,291.1071,75.52115,-148.50091,1010.1,-1.65,-999.0,yes,yes,no,300534062023530,Ice_Ball,USIABP,SIZRS,North
2022-10-18T03:35:51Z,2022,3,35,291.1499,291.1499,75.50636,-148.22973,1009.8,-1.65,-999.0,yes,yes,no,300534062023530,Ice_Ball,USIABP,SIZRS,North
2022-10-18T04:37:20Z,2022,4,37,291.1926,291.1926,76.10713,-153.34147,1009.8,-1.65,-999.0,yes,yes,no,300534062023530,Ice_Ball,USIABP,SIZRS,North
2022-10-18T05:39:07Z,2022,5,39,291.2355,291.2355,75.51405,-149.2174,1009.7,-1.65,-999.0,yes,yes,no,300534062023530,Ice_Ball,USIABP,SIZRS,North
2022-10-18T06:40:27Z,2022,6,40,291.2781,291.2781,75.53193,-148.57637,1009.9,-1.65,-999.0,yes,yes,no,300534062023530,Ice_Ball,USIABP,SIZRS,North
2022-10-18T07:42:05Z,2022,7,42,291.3209,291.3209,75.50684,-149.14236,1010.1,-1.65,-999.0,yes,yes,no,300534062023530,Ice_Ball,USIABP,SIZRS,North
2022-10-18T08:43:35Z,2022,8,43,291.3636,291.3636,75.52476,-149.973,1010.1,-1.65,-999.0,yes,yes,no,300534062023530,Ice_Ball,USIABP,SIZRS,North
2022-10-18T09:45:12Z,2022,9,45,291.4064,291.4064,76.18164,-143.9622,1010.1,-1.65,-999.0,yes,yes,no,300534062023530,Ice_Ball,USIABP,SIZRS,North
2022-10-18T10:47:16Z,2022,10,47,291.4495,291.4495,75.51405,-149.2174,1010.4,-1.65,-999.0,yes,yes,no,300534062023530,Ice_Ball,USIABP,SIZRS,North
2022-10-18T11:48:11Z,2022,11,48,291.4918,291.4918,75.52476,-149.973,1010.5,-1.65,-999.0,yes,yes,no,300534062023530,Ice_Ball,USIABP,SIZRS,North
2022-10-18T12:49:49Z,2022,12,49,291.5346,291.5346,75.53543,-149.17305,1010.5,-1.65,-999.0,yes,yes,no,300534062023530,Ice_Ball,USIABP,SIZRS,North
2022-10-18T13:51:18Z,2022,13,51,291.5773,291.5773,75.50684,-149.14236,1010.7,-1.65,-999.0,yes,yes,no,300534062023530,Ice_Ball,USIABP,SIZRS,North
2022-10-18T14:52:56Z,2022,14,52,291.6201,291.6201,75.50684,-149.14236,1010.8,-1.65,-999.0,yes,yes,no,300534062023530,Ice_Ball,USIABP,SIZRS,North
2022-10-18T15:54:34Z,2022,15,54,291.6629,291.6629,75.53867,-149.36989,1011.0,-1.7,-999.0,yes,yes,no,300534062023530,Ice_Ball,USIABP,SIZRS,North
2022-10-18T16:56:03Z,2022,16,56,291.7056,291.7056,75.51749,-149.21801,1011.2,-1.7,-999.0,yes,yes,no,300534062023530,Ice_Ball,USIABP,SIZRS,North
2022-10-18T17:57:33Z,2022,17,57,291.7483,291.7483,75.50684,-149.14236,1011.4,-1.7,-999.0,yes,yes,no,300534062023530,Ice_Ball,USIABP,SIZRS,North
2022-10-18T18:59:11Z,2022,18,59,291.7911,291.7911,75.51749,-149.21801,1011.6,-1.7,-999.0,yes,yes,no,300534062023530,Ice_Ball,USIABP,SIZRS,North
2022-10-18T20:00:40Z,2022,20,0,291.8338,291.8338,75.53118,-149.49056,1011.9,-1.7,-999.0,yes,yes,no,300534062023530,Ice_Ball,USIABP,SIZRS,North
2022-10-18T21:02:18Z,2022,21,2,291.8766,291.8766,75.49954,-149.26277,1012.0,-1.7,-999.0,yes,yes,no,300534062023530,Ice_Ball,USIABP,SIZRS,North
2022-10-18T22:03:47Z,2022,22,3,291.9193,291.9193,75.49954,-149.26277,1012.0,-1.7,-999.0,yes,yes,no,300534062023530,Ice_Ball,USIABP,SIZRS,North
2022-10-18T23:06:25Z,2022,23,6,291.9628,291.9628,75.49954,-149.26277,1012.1,-1.7,-999.0,yes,yes,no,300534062023530,Ice_Ball,USIABP,SIZRS,North
2022-10-19T00:06:54Z,2022,0,6,292.0048,292.0048,75.48158,-149.30734,1012.1,-1.7,-999.0,yes,yes,no,300534062023530,Ice_Ball,USIABP,SIZRS,North
2022-10-19T01:08:32Z,2022,1,8,292.0476,292.0476,75.49954,-149.26277,1012.3,-1.7,-999.0,yes,yes,no,300534062023530,Ice_Ball,USIABP,SIZRS,North
2022-10-19T02:10:01Z,2022,2,10,292.0903,292.0903,75.51012,-149.33851,1012.3,-1.7,-999.0,yes,yes,no,300534062023530,Ice_Ball,USIABP,SIZRS,North
2022-10-19T03:11:39Z,2022,3,11,292.1331,292.1331,75.5281,-149.29385,1012.2,-1.75,-999.0,yes,yes,no,300534062023530,Ice_Ball,USIABP,SIZRS,North
2022-10-19T04:13:09Z,2022,4,13,292.1758,292.1758,75.47826,-149.11189,1012.1,-1.75,-999.0,yes,yes,no,300534062023530,Ice_Ball,USIABP,SIZRS,North
2022-10-19T05:14:38Z,2022,5,14,292.2185,292.2185,75.51012,-149.33851,1012.3,-1.75,-999.0,yes,yes,no,300534062023530,Ice_Ball,USIABP,SIZRS,North
2022-10-19T06:16:16Z,2022,6,16,292.2613,292.2613,75.51012,-149.33851,1012.4,-1.75,-999.0,yes,yes,no,300534062023530,Ice_Ball,USIABP,SIZRS,North
2022-10-19T07:17:45Z,2022,7,17,292.304,292.304,75.50266,-149.45878,1012.4,-1.75,-999.0,yes,yes,no,300534062023530,Ice_Ball,USIABP,SIZRS,North
2022-10-19T08:19:23Z,2022,8,19,292.3468,292.3468,75.50266,-149.45878,1012.3,-1.75,-999.0,yes,yes,no,300534062023530,Ice_Ball,USIABP,SIZRS,North
2022-10-19T09:20:52Z,2022,9,20,292.3895,292.3895,75.52067,-149.41444,1012.4,-1.75,-999.0,yes,yes,no,300534062023530,Ice_Ball,USIABP,SIZRS,North
2022-10-19T10:22:56Z,2022,10,23,292.4326,292.4326,75.52067,-149.41444,1012.2,-1.75,-999.0,yes,yes,no,300534062023530,Ice_Ball,USIABP,SIZRS,North
2022-10-19T11:24:00Z,2022,11,24,292.475,292.475,75.50266,-149.45878,1012.5,-1.75,-999.0,yes,yes,no,300534062023530,Ice_Ball,USIABP,SIZRS,North
2022-10-19T12:25:37Z,2022,12,25,292.5178,292.5178,75.52067,-149.41444,1012.6,-1.75,-999.0,yes,yes,no,300534062023530,Ice_Ball,USIABP,SIZRS,North
2022-10-19T13:27:07Z,2022,13,27,292.5605,292.5605,75.52067,-149.41444,1012.7,-1.75,-999.0,yes,yes,no,300534062023530,Ice_Ball,USIABP,SIZRS,North
2022-10-19T14:28:36Z,2022,14,28,292.6032,292.6032,75.42022,-152.43273,1012.7,-1.75,-999.0,yes,yes,no,300534062023530,Ice_Ball,USIABP,SIZRS,North
2022-10-19T15:30:14Z,2022,15,30,292.646,292.646,75.55208,-150.4341,1013.1,-1.7,-999.0,yes,yes,no,300534062023530,Ice_Ball,USIABP,SIZRS,North
2022-10-19T16:31:43Z,2022,16,31,292.6887,292.6887,75.53118,-149.49056,1013.2,-1.7,-999.0,yes,yes,no,300534062023530,Ice_Ball,USIABP,SIZRS,North